Location: Albany
(35.0170°S, 117.8920°E)
Time: 17:13:02
(UTC+08:00)

Explorer 11/Cluster Stage 4 - Pass Details

Date: 29 January 2021
Orbit: 467 x 1257 km, 28.8° (Epoch: 02 March)

Event Time Altitude Azimuth Distance (km) Brightness Sun altitude
Rises 11:26:38 0° 275° (W) 3,319 9.7 69.0°
Reaches altitude 10° 11:30:04 10° 292° (WNW) 2,213 9.0 69.4°
Maximum altitude 11:33:29 18° 334° (NNW) 1,583 8.6 69.8°
Drops below altitude 10° 11:36:30 10° 17° (NNE) 1,906 9.0 70.2°
Sets 11:39:11 0° 37° (NE) 2,689 9.6 70.5°
